Volver al catálogo

COSMOS 1038

ActivoMilitarLEO
NORAD 11047·PAYLOAD·🇷🇺 Russia

Lanzado Oct 4, 1978 desde Plesetsk Cosmodrome

Loading…

Próximos Pases (próximas 24 horas)

TLE

ActualizadoSource: Space-Track

Época: Sep 14, 2026, 03:31 UTC

1 11047U 78091E   26257.14670940 -.00000026  00000-0 -71820-4 0  9993
2 11047  74.0368  36.3957 0006215 358.6593 174.1488 12.45935562771919

Sigue COSMOS 1038 en tiempo real con AllMySat

Download on the App Store